Home > Weather > Blackpool > Past weeks

Flag for United Kingdom Past Weather in Blackpool, England, United Kingdom — Yesterday and Last 2 Weeks

Now
63 °F

Passing clouds.


Feels Like: 63 °F
Forecast: 58 / 67 °F
Wind: 20 mph from Southwest

Location: Blackpool Airport

Current Time: Aug 27, 2016 at 12:25:01 AM

Latest Report: Aug 26, 2016 at 8:50 PM


Visibility: N/A

Pressure: 30.09 "Hg

Humidity: 73%

Dew Point: 54 °F

Location of BlackpoolLocation

Past Weather in Blackpool — Graph

°F

Blackpool Temperature Yesterday

Maximum temperature yesterday: 68 °F (at 3:20 PM)
Minimum temperature yesterday: 59 °F (at 6:20 AM)
Average temperature yesterday: 64 °F

High & Low Weather Summary for the Past Weeks

 TemperatureHumidityPressure
High77 °F (Aug 16, 4:50 PM)100% (Aug 19, 10:50 AM)30.33 "Hg (Aug 19, 10:50 AM)
Low50 °F (Aug 15, 6:20 AM)44% (Aug 16, 4:50 PM)29.39 "Hg (Aug 20, 9:20 AM)
Average65 °F77%30.00 "Hg
* Reported Aug 11 8:20 PM — Aug 26 8:50 PM, Blackpool, Weather by CustomWeather, © 2016

Note: Actual official high and low records may vary slightly from our data, if they occured in-between our weather recording intervals... More about our weather records

Advertising

Blackpool Weather History for the Previous 24 Hours

Scroll right to see more
 ConditionsComfort  
Time TempWeatherWind HumidityBarometerVisibility
8:50 PM
Fri, Aug 26
63 °FPassing clouds.20 mph73%30.09 "HgN/A
8:20 PM63 °FPassing clouds.17 mph77%30.09 "HgN/A
7:50 PM63 °FPassing clouds.14 mph83%30.09 "HgN/A
7:20 PM63 °FPassing clouds.14 mph83%30.07 "HgN/A
6:50 PM64 °FPassing clouds.14 mph78%30.07 "HgN/A
6:20 PM64 °FPassing clouds.16 mph78%30.07 "HgN/A
5:50 PM66 °FPassing clouds.17 mph73%30.07 "HgN/A
5:20 PM66 °FPassing clouds.16 mph68%30.07 "HgN/A
4:50 PM66 °FPassing clouds.15 mph68%30.07 "HgN/A
4:20 PM66 °FPassing clouds.16 mph68%30.07 "HgN/A
3:50 PM66 °FPassing clouds.17 mph68%30.07 "HgN/A
3:20 PM68 °FPassing clouds.17 mph64%30.04 "HgN/A
2:50 PM66 °FPassing clouds.21 mph73%30.04 "HgN/A
2:20 PM66 °FPassing clouds.20 mph73%30.04 "HgN/A
1:50 PM66 °FPassing clouds.20 mph73%30.04 "HgN/A
1:20 PM66 °FPassing clouds.21 mph68%30.04 "HgN/A
12:50 PM66 °FPassing clouds.20 mph68%30.04 "HgN/A
12:20 PM64 °FPassing clouds.22 mph73%30.04 "HgN/A
11:50 AM64 °FPassing clouds.21 mph73%30.04 "HgN/A
11:20 AM64 °FPassing clouds.20 mph73%30.04 "HgN/A
10:50 AM64 °FPassing clouds.20 mph78%30.04 "HgN/A
10:20 AM64 °FPassing clouds.18 mph73%30.01 "HgN/A
9:50 AM63 °FPassing clouds.16 mph83%30.01 "HgN/A
9:20 AM63 °FScattered clouds.20 mph83%29.98 "HgN/A
8:50 AM61 °FScattered clouds.18 mph88%29.98 "HgN/A
8:20 AM61 °FScattered clouds.16 mph88%29.98 "HgN/A
7:50 AM61 °FScattered clouds.15 mph88%29.98 "HgN/A
7:20 AM61 °FScattered clouds.15 mph88%29.98 "HgN/A
6:50 AM59 °FPassing clouds.18 mph94%29.95 "HgN/A
6:20 AM59 °FPassing clouds.18 mph94%29.95 "HgN/A
Weather by CustomWeather, © 2016

See weather overviewHow to use our weather pages